Location: Agendoh
(31.0664°N, 8.9343°W)
Time: 04:23:54
(UTC+00:00)

Cosmos 1151 Rocket - Pass Details

Date: 03 July 2022
Orbit: 591 x 615 km, 82.5° (Epoch: 16 August)

Event Time Altitude Azimuth Distance (km) Brightness Sun altitude
Rises 01:56:35 0° 12° (NNE) 2,886 7.6 -32.9°
Reaches altitude 10° 01:59:20 10° 30° (NNE) 1,978 6.5 -32.7°
Enters shadow 02:01:58 19° 66° (ENE) 1,457 5.3 -32.5°
